Location: UBC Liquid-Mirror Observatory
(49.2876°N, 122.5728°W)
Time: 17:20:27
(UTC-07:00)

Daily predictions for brighter satellites

Satellite Brightness Start Highest point End
(mag) Time Altitude Azimuth Time Altitude Azimuth Time Altitude Azimuth
Cosmos 2058 Rocket 3.2 19:49:29 10° S 19:53:58 89° ESE 19:58:32 10° N
Cosmos 1844 4.4 19:50:16 10° SSE 19:55:17 32° ESE 20:00:21 10° NE
COSMO-SKYMED 1 3.5 19:51:19 10° N 19:55:34 54° WNW 19:59:47 10° SSW
Meteor 2-16 Rocket 4.5 19:50:28 10° S 19:56:33 72° E 20:02:42 10° NNE
Cosmos 1900 4.4 19:53:18 10° SSW 19:58:05 59° ESE 20:02:57 10° NE
Lacrosse 4 Rocket 2.3 19:55:03 10° S 19:58:29 27° ESE 20:01:56 10° NE
CZ-2D R/B 3.9 19:56:02 10° SE 19:59:38 37° ENE 20:03:15 10° N
SJ-6B 3.1 20:01:12 10° S 20:04:55 68° WSW 20:08:40 10° NNW
USA 186 2.5 20:03:21 10° ESE 20:05:06 19° ENE 20:06:50 10° NNE
Cosmos 1937 Rocket 4.0 20:01:32 10° S 20:06:19 37° ESE 20:11:10 10° NE
USA 267 3.8 20:00:07 10° E 20:06:24 51° NNE 20:12:41 10° WNW
Abrixas 2.3 20:03:37 10° W 20:06:28 74° S 20:09:11 11° E
Cosmos 1437 Rocket 3.2 20:03:18 10° SSE 20:07:05 43° E 20:10:59 10° NNE
CZ-4B DEB 4.2 20:06:07 10° ESE 20:08:25 19° ENE 20:10:43 10° NNE
Cosmos 2298 Rocket 4.3 20:04:17 10° S 20:09:20 48° ESE 20:14:27 10° NNE
Okean 3 Rocket 4.3 20:05:37 10° N 20:09:34 32° ENE 20:13:30 10° SE
Cosmos 405 2.9 20:09:45 10° S 20:13:16 72° E 20:16:48 10° NNE
ALOS 2.7 20:14:07 10° S 20:18:46 69° WSW 20:23:27 10° NNW
Cosmos 1934 Rocket 4.0 20:14:05 10° SSE 20:20:03 55° E 20:25:58 10° NNE
SeaSat 1 3.9 20:18:23 10° S 20:23:00 40° WSW 20:27:39 10° NW
CZ-3B DEB 3.2 20:13:24 10° SSW 20:23:39 45° SE 20:28:35 10° ENE
Lacrosse 5 3.1 20:20:08 10° S 20:23:53 21° SE 20:27:16 11° E
Cosmos 1939 Rocket 3.8 20:26:40 13° SE 20:29:45 30° ENE 20:33:25 10° N
Cosmos 2344 3.8 20:26:35 10° SSW 20:33:57 53° ESE 20:42:22 10° NE
Cosmos 482 Debris 3.4 20:32:32 10° WNW 20:34:22 36° N 20:34:59 25° NE
Cosmos 1953 3.4 20:31:05 10° SE 20:34:23 24° E 20:37:42 10° NE
Resurs 01 Rocket 2.0 20:30:15 10° S 20:34:39 69° WSW 20:39:05 10° NNW
GP-B 3.9 20:31:16 10° SE 20:35:11 32° ENE 20:39:08 10° NNE
In-Cosmos 22 4.0 20:31:17 10° N 20:36:40 69° ENE 20:41:55 10° SSE
Cosmos 1821 Rocket 4.1 20:31:49 10° S 20:38:13 90° NNE 20:44:37 10° N
Cosmos 1378 4.0 20:35:47 10° NNW 20:39:29 54° W 20:43:09 10° S
Cosmos 1812 Rocket 3.5 20:35:36 10° S 20:40:01 84° ESE 20:44:27 10° N
Cosmos 1844 Rocket 2.7 20:35:45 10° SSW 20:41:24 85° ESE 20:47:05 10° NNE
YAOGAN 6 3.9 20:43:57 21° E 20:44:53 23° ENE 20:47:52 10° NNE
H-2A R/B 3.8 20:42:36 10° S 20:46:22 48° W 20:50:13 10° NNW
Cosmos 1833 Rocket 3.2 20:41:24 10° NNW 20:46:46 43° NE 20:50:12 21° ESE
Spot 1 4.3 20:43:11 10° SSE 20:47:47 87° ENE 20:52:42 10° NNW
Cosmos 2278 Rocket 2.4 20:43:03 10° S 20:48:25 46° ESE 20:53:49 10° NE
SAR-Lupe-4 3.6 20:45:26 10° SSE 20:49:00 83° WSW 20:52:37 10° NNW
Cosmos 1766 Rocket 4.1 20:47:38 10° N 20:51:53 41° ENE 20:54:17 22° SE
Lacrosse 5 rocket 2.2 20:49:28 10° NW 20:53:13 36° NNE 20:55:11 22° ENE
Meteor 1-24 Rocket 4.3 20:48:58 10° NNW 20:54:17 59° W 20:59:45 10° S
RESURS DK-1 2.9 20:50:37 10° NW 20:54:42 58° WSW 20:58:31 11° SSE
Cosmos 1605 Rocket 3.9 20:49:49 10° S 20:56:02 72° E 21:02:23 10° NNE
Cosmos 1076 Rocket 3.5 20:53:45 10° N 20:58:00 61° ENE 21:00:54 19° SSE
Cosmos 2150 Rocket 4.0 20:53:00 10° SSW 20:58:09 81° WNW 21:03:21 10° NNE
H-2A R/B 3.7 20:57:46 16° ENE 20:59:05 17° NE 21:02:29 10° NNE
Cosmos 1766 3.5 20:59:46 10° SSW 21:03:38 69° W 21:07:32 10° N
Cosmos 2123 Rocket 4.4 20:57:28 10° NNW 21:03:46 68° W 21:10:00 10° S
Cosmos 2084 Rocket 4.3 21:03:19 10° WSW 21:07:11 46° NW 21:10:55 10° NE
Cosmos 158 Rocket 4.1 21:03:39 10° NNW 21:08:38 55° ENE 21:11:01 30° SE
Terra 3.9 21:08:46 11° NE 21:09:03 11° NE 21:10:29 10° NE
Cosmos 1898 Rocket 4.5 21:08:40 10° SW 21:13:50 51° WNW 21:18:59 10° NNE
USA 215 3.4 21:07:45 10° ENE 21:14:07 52° SE 21:20:27 10° SSW
Cosmos 2082 Rocket 2.2 21:08:28 10° NNW 21:14:12 70° ENE 21:17:10 29° SE
Cosmos 1271 Rocket 4.2 21:16:40 23° NE 21:16:40 23° NE 21:18:46 10° NNE
Timation 2 Rocket 4.0 21:10:01 10° NNW 21:16:27 66° NE 21:19:38 30° SE
Envisat 3.0 21:11:56 13° SSE 21:16:32 84° WSW 21:21:40 10° NNW
Cosmos 2061 Rocket 4.4 21:13:21 22° SE 21:17:00 42° E 21:22:59 10° NNE
Cosmos 1544 2.9 21:13:29 10° S 21:17:07 86° E 21:20:50 10° N
Meteor 1-4 Rocket 2.4 21:16:42 51° SE 21:17:14 60° E 21:20:42 10° NNE
Cosmos 990 Rocket 4.2 21:12:18 10° SSW 21:17:33 74° WNW 21:22:49 10° NNE
Helios 1B rocket 2.5 21:16:17 10° NNE 21:20:26 79° WNW 21:24:34 10° SSW
Cosmos 1125 Rocket 3.6 21:17:14 10° S 21:22:12 48° ESE 21:27:12 10° NNE
Helios 1A 4.1 21:18:39 10° S 21:22:36 42° W 21:26:37 10° NNW
Cosmos 1048 Rocket 3.8 21:17:41 10° NNW 21:22:52 83° ENE 21:25:18 32° SSE
Cosmos-2242 3.2 21:23:52 45° E 21:23:53 45° E 21:27:58 10° NNE
Cosmos 1743 Rocket 4.0 21:19:52 10° N 21:24:04 42° ENE 21:24:24 41° E
Cosmos 1153 Rocket 4.5 21:17:42 10° S 21:24:05 80° E 21:30:32 10° NNE
SJ-11-01 4.4 21:21:09 17° S 21:24:49 74° WSW 21:29:34 10° NNW
Geosat 4.4 21:22:08 10° NNE 21:27:08 63° NW 21:32:05 10° SW
Cosmos 1500 Rocket 4.3 21:23:18 10° N 21:27:00 33° ENE 21:27:00 33° ENE
COSMOS 2487 2.3 21:25:30 10° NNW 21:29:05 81° ENE 21:29:19 75° ESE
Meteor 1-29 3.2 21:25:39 10° N 21:29:06 69° WNW 21:32:34 10° SSW
Tiangong 1 3.7 21:28:07 10° SW 21:28:45 11° SW 21:28:45 11° SW
H-2A R/B 3.8 21:30:47 17° NE 21:30:47 17° NE 21:32:46 10° NNE
Meteor 1-21 Rocket 4.4 21:25:23 10° NNW 21:31:10 77° W 21:35:56 16° S
Cosmos 1818 3.8 21:29:27 10° NW 21:34:52 65° SW 21:37:17 33° SSE
USA 186 4.3 21:35:00 10° WSW 21:35:57 12° W 21:36:53 10° WNW
Cosmos 1184 Rocket 4.4 21:33:37 10° N 21:35:33 26° NNE 21:35:33 26° NNE
Lacrosse 4 Rocket 2.8 21:33:15 10° WSW 21:37:03 38° NW 21:40:53 10° NNE
Abrixas 4.4 21:38:56 10° W 21:40:27 23° WSW 21:40:27 23° WSW
Cosmos 1805 4.1 21:38:01 10° SSW 21:41:48 50° WNW 21:45:38 10° N
SPOT 1/Viking Rocket 4.0 21:41:35 40° ENE 21:42:00 41° ENE 21:46:52 10° N
Cosmos 1674 3.0 21:39:41 10° NNW 21:43:25 62° W 21:44:09 49° SSW
Cosmos 1340 Rocket 2.6 21:39:27 10° N 21:43:33 81° E 21:43:38 80° ESE
Cosmos 2251 Rocket 3.9 21:40:04 10° NNW 21:45:11 46° ENE 21:45:45 44° ENE
ERS-1 Rocket 3.0 21:43:34 36° S 21:45:39 80° WSW 21:50:44 10° NNW
Cosmos 1408 Rocket 4.1 21:44:10 10° NNW 21:48:34 58° W 21:50:27 32° SSW
USA 267 3.2 21:46:37 41° SE 21:49:09 88° SSW 21:55:45 10° WNW
ARGOS 3.2 21:48:37 52° ESE 21:49:25 58° ENE 21:54:41 10° N
YAOGAN 11 4.1 21:50:51 69° SSE 21:51:24 84° ENE 21:56:00 10° NNW
Cosmos 1269 Rocket 4.5 21:47:04 10° NNW 21:52:16 58° WSW 21:54:28 33° S
Cosmos 1470 3.1 21:54:29 58° NNE 21:54:29 58° NNE 21:57:44 10° N
MetOp-A 4.0 21:55:42 53° SSE 21:57:01 87° ENE 22:02:25 10° NNW
Cosmos 1459 Rocket 3.9 21:52:48 21° S 21:57:09 83° E 22:03:22 10° N
Cosmos 2173 Rocket 3.8 21:54:17 25° S 21:58:06 83° E 22:04:24 10° N
Lacrosse 5 1.7 22:01:13 10° SW 22:06:18 87° SE 22:06:35 80° ENE
SPOT 5 3.0 22:07:47 68° SSE 22:08:30 89° E 22:13:54 10° NNW
Cosmos 1953 4.0 22:06:59 10° SW 22:10:42 33° WNW 22:14:25 10° N
SL-08 RB Rocket 4.0 22:13:46 62° NNE 22:13:46 62° NNE 22:17:50 10° N
YAOGAN 6 4.2 22:18:24 32° W 22:18:24 32° W 22:21:41 10° NNW
Cosmos 1356 Rocket 4.4 22:21:25 10° NNW 22:24:26 45° NNW 22:24:26 45° NNW
Cosmos 2016 Rocket 3.9 22:27:27 52° SSW 22:29:05 81° W 22:35:18 10° N
Cosmos 1833 Rocket 3.7 22:25:30 10° NW 22:30:39 38° WSW 22:31:56 33° SW
Meteor 1-11 4.1 22:25:37 10° NNW 22:31:14 79° W 22:31:19 79° WSW
Cosmos 2278 Rocket 3.6 22:27:24 10° WSW 22:32:38 37° NW 22:37:54 10° NNE
Lacrosse 5 rocket 3.0 22:28:47 10° WNW 22:30:53 29° WNW 22:30:53 29° WNW
Cosmos 1725 Rocket 3.8 22:34:23 80° E 22:34:23 80° E 22:40:32 10° NNE
CZ-3B DEB 2.3 22:29:22 10° WSW 22:36:34 59° NW 22:36:34 59° NW
Cosmos 2151 4.2 22:33:07 10° NNW 22:35:59 40° NNW 22:35:59 40° NNW
H-2A R/B 2.2 22:38:24 72° N 22:38:24 72° N 22:43:11 10° NNW
Cosmos 372 Rocket 4.5 22:36:55 45° WSW 22:38:08 57° WNW 22:43:14 10° NNE
BREEZE-M DEB (TANK) 4.4 22:33:52 10° WSW 22:38:13 84° SSE 22:56:49 10° E
Tsikada Rocket 3.9 22:32:46 10° N 22:38:59 81° W 22:39:24 76° SW
USA 245 4.4 22:41:21 64° WSW 22:41:23 65° W 22:47:17 10° NNW
Cosmos 2297 4.2 22:38:01 10° SW 22:43:39 57° NW 22:49:20 10° NNE
Terra 3.0 22:47:39 37° N 22:47:39 37° N 22:50:39 10° N
USA 215 3.4 22:52:37 20° NE 22:57:18 68° NNW 23:03:47 10° WSW
Cosmos 2082 Rocket 4.0 22:53:28 10° NW 22:57:44 22° W 22:59:03 20° WSW
H-2A R/B 4.1 23:07:54 24° NNW 23:07:54 24° NNW 23:09:41 10° NNW
USA 267 4.5 23:33:57 30° WSW 23:33:57 30° WSW 23:38:28 10° WNW
Cosmos 2297 Rocket 4.4 23:37:48 10° N 23:41:16 16° NNE 23:41:24 16° NE
Lacrosse 5 4.3 23:44:57 10° W 23:45:54 15° WNW 23:45:54 15° WNW
